Weather History for KPMV - March, 2013

Change the Weather History Date:

Friday, March 8, 2013

  Actual Average (KOFF) Record (KOFF)
Temperature  
Mean Temperature 43 °F -  
Max Temperature 56 °F 39 °F 66 °F (1997)
Min Temperature 30 °F 22 °F 6 °F (2008)
Degree Days  
Heating Degree Days 22    
Moisture  
Dew Point 32 °F    
Average Humidity 68    
Maximum Humidity 89    
Minimum Humidity 44    
Precipitation  
Precipitation 0.10 in - - ()
Sea Level Pressure  
Sea Level Pressure 30.07 in    
Wind  
Wind Speed 12 mph (SE)    
Max Wind Speed 20 mph    
Max Gust Speed 28 mph    
Visibility 9 miles    
Events Rain , Thunderstorm    
Averages and records for this station are not official NWS values.
T = Trace of Precipitation, MM = Missing Value Source: NWS Daily Summary

Daily Weather History Graph

Daily Weather History Graph

Search for Another Location

Airport or City:

Trip Planner

Search our weather history database for the weather conditions in past years. The results will help you decide how hot, cold, wet, or windy it might be!

Date:

Astronomy

Mar. 08, 2013 Rise Set
Actual Time 6:46 AM CST 6:22 PM CST
Civil Twilight 6:18 AM CST 6:50 PM CST
Nautical Twilight 5:47 AM CST 7:22 PM CST
Astronomical Twilight 5:15 AM CST 7:54 PM CST
Moon 4:32 AM CST (3/8) 3:18 PM CST (3/8)
Length of Visible Light 12h 31m
Length of Day
11h 36m
Waning Crescent, 11% of the Moon is Illuminated
Mar 8
Waning Crescent
Mar 11
New
Mar 19
First Quarter
Mar 27
Full
Apr 2
Last Quarter

Hourly Weather History & Observations

Time (CST) Temp. Windchill Dew Point Humidity Pressure Visibility Wind Dir Wind Speed Gust Speed Precip Events Conditions
12:15 AM 32.0 °F 23.0 °F 26.2 °F 79% 30.18 in 10.0 mi ESE 11.5 mph - N/A   Clear
12:35 AM 32.0 °F 23.0 °F 26.4 °F 80% 30.18 in 10.0 mi SE 11.5 mph - N/A   Clear
12:55 AM 32.4 °F 23.5 °F 26.2 °F 78% 30.18 in 10.0 mi SE 11.5 mph 17.3 mph N/A   Clear
1:15 AM 32.2 °F 22.7 °F 26.2 °F 79% 30.18 in 10.0 mi ESE 12.7 mph - N/A   Clear
1:35 AM 32.0 °F 23.0 °F 26.2 °F 79% 30.18 in 10.0 mi ESE 11.5 mph - N/A   Clear
1:55 AM 32.2 °F 21.8 °F 26.2 °F 79% 30.17 in 10.0 mi SE 15.0 mph - N/A   Clear
2:15 AM 32.0 °F 23.0 °F 26.2 °F 79% 30.17 in 10.0 mi SE 11.5 mph - N/A   Clear
2:35 AM 32.0 °F 22.5 °F 26.2 °F 79% 30.16 in 10.0 mi SE 12.7 mph - N/A   Clear
2:55 AM 32.0 °F 23.6 °F 26.4 °F 80% 30.16 in 10.0 mi SE 10.4 mph - N/A   Clear
3:15 AM 32.0 °F 24.2 °F 26.2 °F 79% 30.15 in 10.0 mi SE 9.2 mph - N/A   Clear
3:35 AM 32.0 °F 24.8 °F 26.4 °F 80% 30.15 in 10.0 mi ESE 8.1 mph - N/A   Clear
3:55 AM 32.0 °F 24.2 °F 26.4 °F 80% 30.15 in 10.0 mi ESE 9.2 mph - N/A   Clear
4:15 AM 31.8 °F 25.4 °F 26.4 °F 80% 30.14 in 10.0 mi ESE 6.9 mph - N/A   Clear
4:35 AM 32.0 °F 25.6 °F 26.4 °F 80% 30.15 in 10.0 mi ESE 6.9 mph - N/A   Clear
4:55 AM 30.2 °F 23.4 °F 26.1 °F 85% 30.15 in 10.0 mi ESE 6.9 mph - N/A   Clear
5:15 AM 30.2 °F 21.9 °F 26.2 °F 85% 30.14 in 7.0 mi ESE 9.2 mph - N/A   Clear
5:35 AM 30.0 °F 22.4 °F 26.4 °F 86% 30.14 in 7.0 mi East 8.1 mph - N/A   Clear
5:55 AM 30.2 °F 21.9 °F 26.4 °F 86% 30.14 in 7.0 mi East 9.2 mph - N/A   Clear
6:15 AM 30.2 °F 22.6 °F 26.4 °F 86% 30.15 in 7.0 mi ESE 8.1 mph - N/A   Clear
6:35 AM 30.7 °F 23.3 °F 26.6 °F 85% 30.15 in 7.0 mi ESE 8.1 mph - N/A   Clear
6:55 AM 32.0 °F 23.6 °F 27.1 °F 82% 30.14 in 7.0 mi ESE 10.4 mph - N/A   Clear
7:15 AM 32.0 °F 24.2 °F 27.3 °F 83% 30.14 in 7.0 mi ESE 9.2 mph - N/A   Clear
7:35 AM 32.7 °F 23.9 °F 27.7 °F 82% 30.14 in 7.0 mi ESE 11.5 mph - N/A   Clear
7:55 AM 34.2 °F 26.2 °F 28.4 °F 79% 30.14 in 7.0 mi SE 10.4 mph - N/A   Clear
8:15 AM 36.0 °F 28.5 °F 29.1 °F 76% 30.13 in 7.0 mi ESE 10.4 mph - N/A   Clear
8:35 AM 37.8 °F 30.7 °F 29.5 °F 72% 30.14 in 10.0 mi SE 10.4 mph - N/A   Clear
8:55 AM 38.8 °F 31.2 °F 29.8 °F 70% 30.14 in 10.0 mi SE 12.7 mph - N/A   Clear
9:15 AM 39.7 °F 32.3 °F 30.7 °F 70% 30.14 in 10.0 mi SE 12.7 mph 19.6 mph N/A   Clear
9:35 AM 43.0 °F 36.0 °F 30.9 °F 62% 30.13 in 10.0 mi SE 13.8 mph - N/A   Clear
9:55 AM 45.1 °F 39.1 °F 31.5 °F 59% 30.14 in 10.0 mi SE 12.7 mph - N/A   Clear
10:15 AM 46.0 °F 40.2 °F 31.8 °F 58% 30.13 in 10.0 mi SE 12.7 mph 19.6 mph N/A   Clear
10:35 AM 48.7 °F - 32.0 °F 52% 30.13 in 10.0 mi SE 10.4 mph 18.4 mph N/A   Clear
10:55 AM 51.3 °F - 32.5 °F 49% 30.13 in 10.0 mi SE 11.5 mph - N/A   Clear
11:15 AM 52.3 °F - 32.5 °F 47% 30.12 in 10.0 mi SE 11.5 mph - N/A   Clear
11:35 AM 52.0 °F - 32.7 °F 48% 30.11 in 10.0 mi SE 10.4 mph 16.1 mph N/A   Clear
11:55 AM 54.1 °F - 33.3 °F 45% 30.11 in 10.0 mi SE 10.4 mph - N/A   Clear
12:15 PM 54.0 °F - 33.3 °F 46% 30.11 in 10.0 mi SSE 10.4 mph - N/A   Clear
12:35 PM 53.6 °F - 33.3 °F 46% 30.10 in 10.0 mi SE 10.4 mph - N/A   Clear
12:55 PM 53.8 °F - 33.8 °F 47% 30.09 in 10.0 mi SE 10.4 mph - N/A   Clear
1:15 PM 53.8 °F - 33.6 °F 46% 30.07 in 10.0 mi ESE 11.5 mph - N/A   Clear
1:35 PM 54.5 °F - 34.2 °F 46% 30.06 in 10.0 mi ESE 13.8 mph - N/A   Clear
1:55 PM 56.3 °F - 34.5 °F 44% 30.05 in 10.0 mi ESE 11.5 mph - N/A   Clear
2:15 PM 55.4 °F - 35.8 °F 48% 30.04 in 10.0 mi ESE 12.7 mph - N/A   Clear
2:35 PM 55.4 °F - 36.5 °F 49% 30.03 in 10.0 mi ESE 16.1 mph - N/A   Clear
2:55 PM 55.4 °F - 36.3 °F 49% 30.02 in 10.0 mi ESE 16.1 mph 20.7 mph N/A   Scattered Clouds
3:15 PM 54.5 °F - 36.7 °F 51% 30.02 in 10.0 mi ESE 13.8 mph 23.0 mph N/A   Scattered Clouds
3:35 PM 54.5 °F - 37.0 °F 52% 30.01 in 10.0 mi ESE 17.3 mph 21.9 mph N/A   Scattered Clouds
3:55 PM 54.5 °F - 37.6 °F 53% 30.00 in 10.0 mi ESE 15.0 mph 20.7 mph N/A   Mostly Cloudy
4:15 PM 53.1 °F - 37.0 °F 55% 29.99 in 10.0 mi ESE 19.6 mph 23.0 mph N/A   Mostly Cloudy
4:35 PM 51.4 °F - 36.7 °F 57% 29.99 in 10.0 mi ESE 16.1 mph 27.6 mph N/A   Scattered Clouds
4:55 PM 50.9 °F - 36.5 °F 58% 29.98 in 10.0 mi ESE 16.1 mph 25.3 mph N/A   Mostly Cloudy
5:15 PM 49.3 °F - 36.3 °F 61% 29.98 in 10.0 mi ESE 16.1 mph 21.9 mph N/A   Mostly Cloudy
5:35 PM 48.2 °F - 35.8 °F 62% 29.99 in 10.0 mi ESE 18.4 mph 21.9 mph N/A   Mostly Cloudy
5:55 PM 46.9 °F - 35.2 °F 64% 29.98 in 10.0 mi ESE 17.3 mph 26.5 mph N/A   Overcast
6:15 PM 46.2 °F 39.0 °F 35.1 °F 65% 29.98 in 10.0 mi ESE 18.4 mph - N/A   Overcast
6:35 PM 45.5 °F 38.1 °F 34.7 °F 66% 29.98 in 10.0 mi ESE 18.4 mph 23.0 mph N/A   Overcast
6:55 PM 45.0 °F 38.2 °F 34.5 °F 67% 29.97 in 10.0 mi ESE 15.0 mph 21.9 mph N/A   Overcast
7:15 PM 44.6 °F 37.4 °F 34.2 °F 67% 29.98 in 10.0 mi ESE 16.1 mph 23.0 mph N/A   Overcast
7:35 PM 44.2 °F 37.3 °F 33.8 °F 67% 29.98 in 10.0 mi ESE 15.0 mph 23.0 mph N/A   Overcast
7:55 PM 43.9 °F 37.2 °F 33.6 °F 67% 29.98 in 10.0 mi ESE 13.8 mph 21.9 mph N/A   Overcast
8:15 PM 44.2 °F 38.4 °F 33.8 °F 67% 29.98 in 10.0 mi SE 11.5 mph 20.7 mph N/A   Overcast
8:35 PM 44.6 °F 39.7 °F 33.8 °F 66% 29.98 in 10.0 mi SE 9.2 mph - N/A   Overcast
8:55 PM 45.5 °F 39.6 °F 34.0 °F 64% 29.97 in 10.0 mi SE 12.7 mph 23.0 mph N/A   Overcast
9:15 PM 45.5 °F 38.9 °F 34.7 °F 66% 29.97 in 10.0 mi SE 15.0 mph 19.6 mph N/A Rain Light Rain
9:35 PM 45.5 °F 38.9 °F 36.0 °F 69% 29.97 in 10.0 mi SE 15.0 mph 19.6 mph N/A Rain Light Rain
9:55 PM 45.3 °F 39.0 °F 36.0 °F 70% 29.97 in 10.0 mi SE 13.8 mph 21.9 mph N/A   Light Drizzle
10:15 PM 44.2 °F 37.0 °F 37.6 °F 77% 29.96 in 5.0 mi SE 16.1 mph 24.2 mph 0.01 in Rain Rain
10:35 PM 43.2 °F 36.2 °F 38.5 °F 84% 29.96 in 5.0 mi SE 13.8 mph 18.4 mph 0.05 in Rain Heavy Rain
10:55 PM 43.0 °F 35.7 °F 38.5 °F 84% 29.94 in 10.0 mi SE 15.0 mph 20.7 mph 0.05 in Rain , Thunderstorm Rain
11:15 PM 42.6 °F 36.3 °F 38.5 °F 85% 29.93 in 7.0 mi SE 11.5 mph - 0.01 in Rain , Thunderstorm Light Thunderstorms and Rain
11:35 PM 42.4 °F 36.1 °F 38.5 °F 86% 29.91 in 10.0 mi SE 11.5 mph 19.6 mph 0.01 in Thunderstorm Unknown
11:55 PM 42.1 °F 35.2 °F 39.0 °F 89% 29.91 in 4.0 mi SE 12.7 mph 17.3 mph 0.05 in Rain , Thunderstorm Heavy Thunderstorms and Rain